This is the latest recevied weather packets stored in our database for station/object LRCL. If no packets are shown the sender has not sent any weather packets the latest 10 day(s).
| Time | Temp. | Humidity | Pressure | Rain* | Wind** | Luminosity | Snow |
|---|---|---|---|---|---|---|---|
| 1777889896 | 22.22° C | 25% | 1018 hPa | - | - | - | - |
| 1777888988 | 22.22° C | 25% | 1018 hPa | - | - | - | - |
| 1777888088 | 22.22° C | 29% | 1019 hPa | - | - | - | - |
| 1777887188 | 22.22° C | 29% | 1019 hPa | - | - | - | - |
| 1777886288 | 21.11° C | 33% | 1019 hPa | - | - | - | - |
| 1777885388 | 21.11° C | 33% | 1019 hPa | - | - | - | - |
| 1777884517 | 20° C | 33% | 1019 hPa | - | - | - | - |
| 1777883588 | 20° C | 33% | 1019 hPa | - | - | - | - |
| 1777882688 | 20° C | 30% | 1019 hPa | - | - | - | - |
| 1777881788 | 20° C | 30% | 1019 hPa | - | - | - | - |
| 1777880889 | 18.89° C | 35% | 1019 hPa | - | - | - | - |
| 1777879988 | 18.89° C | 35% | 1019 hPa | - | - | - | - |
| 1777879088 | 17.78° C | 37% | 1019 hPa | - | - | - | - |
| 1777878189 | 17.78° C | 37% | 1019 hPa | - | - | - | - |
| 1777877288 | 16.11° C | 45% | 1019 hPa | - | - | - | - |
| 1777876389 | 16.11° C | 45% | 1019 hPa | - | - | - | - |
| 1777875489 | 13.89° C | 48% | 1019 hPa | - | - | - | - |
| 1777874589 | 13.89° C | 48% | 1019 hPa | - | - | - | - |
| 1777873689 | 12.22° C | 54% | 1019 hPa | - | - | - | - |
| 1777872789 | 12.22° C | 54% | 1019 hPa | - | - | - | - |
| 1777871889 | 10° C | 58% | 1019 hPa | - | - | - | - |
| 1777870998 | 10° C | 58% | 1019 hPa | - | - | - | - |
| 1777870089 | 7.78° C | 66% | 1019 hPa | - | - | - | - |
| 1777869188 | 7.78° C | 66% | 1019 hPa | - | - | - | - |
| 1777868288 | 7.22° C | 66% | 1019 hPa | - | - | - | - |
* Rain since midnight (hover to see other rain measurements)
** Current wind speed in m/s (hover to see current wind gust speed)